Tracking 19476 objects as of 17-Jan-2019
HD Live streaming from Space Station
objects crossing your sky now

COSMOS 1927

Track COSMOS 1927 now!
10-day predictions
COSMOS 1927 is classified as:


NORAD ID: 18940
Int'l Code: 1988-016D
Perigee: 1,461.9 km
Apogee: 1,474.1 km
Inclination: 74.0 °
Period: 115.1 minutes
Semi major axis: 7838 km
RCS: 0.7207 m2 (medium)
Launch date: March 11, 1988
Source: Commonwealth of Independent States (former USSR) (CIS)
Launch site: PLESETSK MISSILE AND SPACE COMPLEX (PKMTR)
aabbcc
Your satellite tracking list
Your tracking list is empty




NASA's NSSDC Master Catalog

Two Line Element Set (TLE):
1 18940U 88016D   19016.90435997 -.00000018  00000-0 -14210-4 0  9991
2 18940  74.0060 281.9368 0007793 335.4099  93.9255 12.50875199409033
Source of the keplerian elements: AFSPC